Time,TemperatureF,DewpointF,PressureIn,WindDirection,WindDirectionDegrees,WindSpeedMPH,WindSpeedGustMPH,Humidity,HourlyPrecipIn,Conditions,Clouds,dailyrainin,SoftwareType,DateUTC
2013-05-25 01:22:00,49.0,45.0,29.74,North,-999,-999.0,-999.0,85,-99.99,,,-99.99,,2013-05-25 05:22:00,
2013-05-25 01:32:00,50.0,45.0,29.75,North,-999,-999.0,-999.0,83,-99.99,,,-99.99,,2013-05-25 05:32:00,
2013-05-25 01:42:00,50.0,45.0,29.75,North,-999,-999.0,-999.0,83,-99.99,,,-99.99,,2013-05-25 05:42:00,
2013-05-25 01:52:00,50.0,45.0,29.76,North,-999,-999.0,-999.0,82,-99.99,,,-99.99,,2013-05-25 05:52:00,
2013-05-25 02:01:00,50.0,45.0,29.76,North,-999,-999.0,-999.0,82,-99.99,,,-99.99,,2013-05-25 06:01:00,
2013-05-25 02:11:00,49.0,45.0,29.78,North,-999,-999.0,-999.0,86,-99.99,,,-99.99,,2013-05-25 06:11:00,
2013-05-25 02:21:00,49.0,45.0,29.78,North,-999,-999.0,-999.0,86,-99.99,,,-99.99,,2013-05-25 06:21:00,
2013-05-25 02:32:00,49.0,45.0,29.78,North,-999,-999.0,-999.0,87,-99.99,,,-99.99,,2013-05-25 06:32:00,
2013-05-25 02:41:00,49.0,45.0,29.76,North,-999,-999.0,-999.0,87,-99.99,,,-99.99,,2013-05-25 06:41:00,
2013-05-25 02:51:00,49.0,45.0,29.76,North,-999,-999.0,-999.0,88,-99.99,,,-99.99,,2013-05-25 06:51:00,
2013-05-25 03:01:00,49.0,45.0,29.76,North,-999,-999.0,-999.0,88,-99.99,,,-99.99,,2013-05-25 07:01:00,
2013-05-25 03:11:00,48.0,45.0,29.76,North,-999,-999.0,-999.0,89,-99.99,,,-99.99,,2013-05-25 07:11:00,
2013-05-25 03:21:00,49.0,45.0,29.76,North,-999,-999.0,-999.0,87,-99.99,,,-99.99,,2013-05-25 07:21:00,
2013-05-25 03:31:00,49.0,45.0,29.77,North,-999,-999.0,-999.0,87,-99.99,,,-99.99,,2013-05-25 07:31:00,
2013-05-25 03:41:00,49.0,45.0,29.77,North,-999,-999.0,-999.0,87,-99.99,,,-99.99,,2013-05-25 07:41:00,
2013-05-25 03:52:00,49.0,45.0,29.77,North,-999,-999.0,-999.0,87,-99.99,,,-99.99,,2013-05-25 07:52:00,
2013-05-25 04:01:00,49.0,45.0,29.77,North,-999,-999.0,-999.0,87,-99.99,,,-99.99,,2013-05-25 08:01:00,
2013-05-25 04:11:00,49.0,45.0,29.75,North,-999,-999.0,-999.0,87,-99.99,,,-99.99,,2013-05-25 08:11:00,
2013-05-25 04:22:00,49.0,46.0,29.75,North,-999,-999.0,-999.0,89,-99.99,,,-99.99,,2013-05-25 08:22:00,
2013-05-25 04:31:00,49.0,46.0,29.75,North,-999,-999.0,-999.0,89,-99.99,,,-99.99,,2013-05-25 08:31:00,
2013-05-25 04:41:00,49.0,46.0,29.75,North,-999,-999.0,-999.0,88,-99.99,,,-99.99,,2013-05-25 08:41:00,
2013-05-25 04:51:00,49.0,46.0,29.74,North,-999,-999.0,-999.0,89,-99.99,,,-99.99,,2013-05-25 08:51:00,
2013-05-25 05:01:00,49.0,46.0,29.74,North,-999,-999.0,-999.0,89,-99.99,,,-99.99,,2013-05-25 09:01:00,
2013-05-25 05:11:00,49.0,46.0,29.73,North,-999,-999.0,-999.0,90,-99.99,,,-99.99,,2013-05-25 09:11:00,
2013-05-25 05:21:00,49.0,46.0,29.73,North,-999,-999.0,-999.0,89,-99.99,,,-99.99,,2013-05-25 09:21:00,
2013-05-25 05:33:00,49.0,46.0,29.73,North,-999,-999.0,-999.0,89,-99.99,,,-99.99,,2013-05-25 09:33:00,
2013-05-25 05:42:00,48.0,46.0,29.75,North,-999,-999.0,-999.0,90,-99.99,,,-99.99,,2013-05-25 09:42:00,
2013-05-25 05:52:00,48.0,46.0,29.75,North,-999,-999.0,-999.0,90,-99.99,,,-99.99,,2013-05-25 09:52:00,
2013-05-25 06:02:00,48.0,46.0,29.75,North,-999,-999.0,-999.0,90,-99.99,,,-99.99,,2013-05-25 10:02:00,
2013-05-25 06:12:00,48.0,45.0,29.75,North,-999,-999.0,-999.0,89,-99.99,,,-99.99,,2013-05-25 10:12:00,
2013-05-25 06:22:00,48.0,45.0,29.75,North,-999,-999.0,-999.0,89,-99.99,,,-99.99,,2013-05-25 10:22:00,
2013-05-25 06:32:00,49.0,46.0,29.76,North,-999,-999.0,-999.0,89,-99.99,,,-99.99,,2013-05-25 10:32:00,
2013-05-25 06:42:00,49.0,46.0,29.76,North,-999,-999.0,-999.0,89,-99.99,,,-99.99,,2013-05-25 10:42:00,
2013-05-25 06:52:00,48.0,45.0,29.77,North,-999,-999.0,-999.0,90,-99.99,,,-99.99,,2013-05-25 10:52:00,
2013-05-25 07:02:00,48.0,45.0,29.77,North,-999,-999.0,-999.0,90,-99.99,,,-99.99,,2013-05-25 11:02:00,
2013-05-25 07:11:00,48.0,45.0,29.77,North,-999,-999.0,-999.0,90,-99.99,,,-99.99,,2013-05-25 11:11:00,
2013-05-25 07:21:00,48.0,45.0,29.76,North,-999,-999.0,-999.0,89,-99.99,,,-99.99,,2013-05-25 11:21:00,
2013-05-25 07:32:00,48.0,45.0,29.76,North,-999,-999.0,-999.0,89,-99.99,,,-99.99,,2013-05-25 11:32:00,
2013-05-25 07:41:00,49.0,45.0,29.76,North,-999,-999.0,-999.0,88,-99.99,,,-99.99,,2013-05-25 11:41:00,
2013-05-25 07:52:00,49.0,45.0,29.76,North,-999,-999.0,-999.0,87,-99.99,,,-99.99,,2013-05-25 11:52:00,
2013-05-25 08:01:00,49.0,45.0,29.76,North,-999,-999.0,-999.0,87,-99.99,,,-99.99,,2013-05-25 12:01:00,
2013-05-25 08:11:00,49.0,45.0,29.76,North,-999,-999.0,-999.0,86,-99.99,,,-99.99,,2013-05-25 12:11:00,
2013-05-25 08:21:00,49.0,45.0,29.76,North,-999,-999.0,-999.0,86,-99.99,,,-99.99,,2013-05-25 12:21:00,
2013-05-25 08:32:00,49.0,45.0,29.76,North,-999,-999.0,-999.0,86,-99.99,,,-99.99,,2013-05-25 12:32:00,
2013-05-25 08:42:00,49.0,45.0,29.75,North,-999,-999.0,-999.0,86,-99.99,,,-99.99,,2013-05-25 12:42:00,
2013-05-25 08:52:00,49.0,45.0,29.75,North,-999,-999.0,-999.0,86,-99.99,,,-99.99,,2013-05-25 12:52:00,
2013-05-25 09:01:00,49.0,45.0,29.75,North,-999,-999.0,-999.0,86,-99.99,,,-99.99,,2013-05-25 13:01:00,
2013-05-25 09:11:00,49.0,45.0,29.75,North,-999,-999.0,-999.0,86,-99.99,,,-99.99,,2013-05-25 13:11:00,
2013-05-25 09:21:00,49.0,45.0,29.75,North,-999,-999.0,-999.0,85,-99.99,,,-99.99,,2013-05-25 13:21:00,
2013-05-25 09:32:00,49.0,45.0,29.75,North,-999,-999.0,-999.0,85,-99.99,,,-99.99,,2013-05-25 13:32:00,
2013-05-25 09:42:00,49.0,44.0,29.75,North,-999,-999.0,-999.0,84,-99.99,,,-99.99,,2013-05-25 13:42:00,
2013-05-25 09:52:00,49.0,44.0,29.75,North,-999,-999.0,-999.0,83,-99.99,,,-99.99,,2013-05-25 13:52:00,
2013-05-25 10:01:00,49.0,44.0,29.75,North,-999,-999.0,-999.0,83,-99.99,,,-99.99,,2013-05-25 14:01:00,
2013-05-25 10:11:00,50.0,45.0,29.75,North,-999,-999.0,-999.0,83,-99.99,,,-99.99,,2013-05-25 14:11:00,
2013-05-25 10:22:00,50.0,45.0,29.75,North,-999,-999.0,-999.0,83,-99.99,,,-99.99,,2013-05-25 14:22:00,
2013-05-25 10:32:00,50.0,45.0,29.75,North,-999,-999.0,-999.0,83,-99.99,,,-99.99,,2013-05-25 14:32:00,
2013-05-25 10:41:00,50.0,45.0,29.74,North,-999,-999.0,-999.0,82,-99.99,,,-99.99,,2013-05-25 14:41:00,
2013-05-25 10:52:00,50.0,45.0,29.74,North,-999,-999.0,-999.0,83,-99.99,,,-99.99,,2013-05-25 14:52:00,
2013-05-25 11:01:00,50.0,45.0,29.74,North,-999,-999.0,-999.0,83,-99.99,,,-99.99,,2013-05-25 15:01:00,
2013-05-25 11:11:00,50.0,45.0,29.74,North,-999,-999.0,-999.0,80,-99.99,,,-99.99,,2013-05-25 15:11:00,
2013-05-25 11:22:00,51.0,44.0,29.74,North,-999,-999.0,-999.0,79,-99.99,,,-99.99,,2013-05-25 15:22:00,
2013-05-25 11:32:00,51.0,44.0,29.74,North,-999,-999.0,-999.0,79,-99.99,,,-99.99,,2013-05-25 15:32:00,
2013-05-25 11:43:00,51.0,44.0,29.73,North,-999,-999.0,-999.0,77,-99.99,,,-99.99,,2013-05-25 15:43:00,
2013-05-25 11:53:00,51.0,44.0,29.73,North,-999,-999.0,-999.0,76,-99.99,,,-99.99,,2013-05-25 15:53:00,
2013-05-25 12:02:00,51.0,44.0,29.73,North,-999,-999.0,-999.0,76,-99.99,,,-99.99,,2013-05-25 16:02:00,
2013-05-25 12:12:00,51.0,45.0,29.73,North,-999,-999.0,-999.0,79,-99.99,,,-99.99,,2013-05-25 16:12:00,
2013-05-25 12:22:00,50.0,44.0,29.73,North,-999,-999.0,-999.0,79,-99.99,,,-99.99,,2013-05-25 16:22:00,
2013-05-25 12:32:00,50.0,44.0,29.73,North,-999,-999.0,-999.0,79,-99.99,,,-99.99,,2013-05-25 16:32:00,
2013-05-25 12:42:00,51.0,44.0,29.72,North,-999,-999.0,-999.0,76,-99.99,,,-99.99,,2013-05-25 16:42:00,
2013-05-25 12:52:00,51.0,43.0,29.72,North,-999,-999.0,-999.0,74,-99.99,,,-99.99,,2013-05-25 16:52:00,
2013-05-25 13:02:00,51.0,43.0,29.72,North,-999,-999.0,-999.0,74,-99.99,,,-99.99,,2013-05-25 17:02:00,
2013-05-25 13:11:00,50.0,43.0,29.73,North,-999,-999.0,-999.0,76,-99.99,,,-99.99,,2013-05-25 17:11:00,
2013-05-25 13:22:00,50.0,43.0,29.74,North,-999,-999.0,-999.0,78,-99.99,,,-99.99,,2013-05-25 17:22:00,
2013-05-25 13:32:00,50.0,43.0,29.74,North,-999,-999.0,-999.0,78,-99.99,,,-99.99,,2013-05-25 17:32:00,
2013-05-25 13:41:00,50.0,43.0,29.74,North,-999,-999.0,-999.0,77,-99.99,,,-99.99,,2013-05-25 17:41:00,
2013-05-25 13:52:00,49.0,42.0,29.73,North,-999,-999.0,-999.0,76,-99.99,,,-99.99,,2013-05-25 17:52:00,
2013-05-25 14:01:00,49.0,42.0,29.73,North,-999,-999.0,-999.0,76,-99.99,,,-99.99,,2013-05-25 18:01:00,
2013-05-25 14:11:00,50.0,42.0,29.73,North,-999,-999.0,-999.0,75,-99.99,,,-99.99,,2013-05-25 18:11:00,
2013-05-25 14:21:00,50.0,43.0,29.73,North,-999,-999.0,-999.0,76,-99.99,,,-99.99,,2013-05-25 18:21:00,
2013-05-25 14:31:00,50.0,43.0,29.73,North,-999,-999.0,-999.0,76,-99.99,,,-99.99,,2013-05-25 18:31:00,
2013-05-25 14:41:00,50.0,43.0,29.73,North,-999,-999.0,-999.0,76,-99.99,,,-99.99,,2013-05-25 18:41:00,
2013-05-25 14:51:00,50.0,43.0,29.73,North,-999,-999.0,-999.0,76,-99.99,,,-99.99,,2013-05-25 18:51:00,
2013-05-25 15:01:00,50.0,43.0,29.73,North,-999,-999.0,-999.0,76,-99.99,,,-99.99,,2013-05-25 19:01:00,
2013-05-25 15:11:00,50.0,43.0,29.73,North,-999,-999.0,-999.0,76,-99.99,,,-99.99,,2013-05-25 19:11:00,
2013-05-25 15:21:00,50.0,43.0,29.73,North,-999,-999.0,-999.0,77,-99.99,,,-99.99,,2013-05-25 19:21:00,
2013-05-25 15:31:00,50.0,43.0,29.73,North,-999,-999.0,-999.0,77,-99.99,,,-99.99,,2013-05-25 19:31:00,
2013-05-25 15:41:00,49.0,42.0,29.72,North,-999,-999.0,-999.0,76,-99.99,,,-99.99,,2013-05-25 19:41:00,
2013-05-25 15:52:00,49.0,42.0,29.73,North,-999,-999.0,-999.0,78,-99.99,,,-99.99,,2013-05-25 19:52:00,
2013-05-25 16:02:00,49.0,42.0,29.73,North,-999,-999.0,-999.0,78,-99.99,,,-99.99,,2013-05-25 20:02:00,
2013-05-25 16:11:00,49.0,43.0,29.73,North,-999,-999.0,-999.0,79,-99.99,,,-99.99,,2013-05-25 20:11:00,
2013-05-25 16:21:00,49.0,43.0,29.73,North,-999,-999.0,-999.0,80,-99.99,,,-99.99,,2013-05-25 20:21:00,
2013-05-25 16:32:00,49.0,43.0,29.73,North,-999,-999.0,-999.0,80,-99.99,,,-99.99,,2013-05-25 20:32:00,
2013-05-25 16:41:00,48.0,42.0,29.73,North,-999,-999.0,-999.0,80,-99.99,,,-99.99,,2013-05-25 20:41:00,
2013-05-25 16:51:00,48.0,42.0,29.73,North,-999,-999.0,-999.0,79,-99.99,,,-99.99,,2013-05-25 20:51:00,
2013-05-25 17:01:00,48.0,42.0,29.73,North,-999,-999.0,-999.0,79,-99.99,,,-99.99,,2013-05-25 21:01:00,
2013-05-25 17:11:00,49.0,42.0,29.73,North,-999,-999.0,-999.0,77,-99.99,,,-99.99,,2013-05-25 21:11:00,
2013-05-25 17:21:00,48.0,41.0,29.74,North,-999,-999.0,-999.0,76,-99.99,,,-99.99,,2013-05-25 21:21:00,
2013-05-25 17:32:00,48.0,41.0,29.74,North,-999,-999.0,-999.0,76,-99.99,,,-99.99,,2013-05-25 21:32:00,
2013-05-25 17:42:00,47.0,41.0,29.74,North,-999,-999.0,-999.0,80,-99.99,,,-99.99,,2013-05-25 21:42:00,
2013-05-25 17:53:00,46.0,41.0,29.73,North,-999,-999.0,-999.0,80,-99.99,,,-99.99,,2013-05-25 21:53:00,
2013-05-25 18:02:00,46.0,41.0,29.73,North,-999,-999.0,-999.0,80,-99.99,,,-99.99,,2013-05-25 22:02:00,
2013-05-25 18:12:00,46.0,41.0,29.74,North,-999,-999.0,-999.0,80,-99.99,,,-99.99,,2013-05-25 22:12:00,
2013-05-25 18:22:00,46.0,41.0,29.74,North,-999,-999.0,-999.0,80,-99.99,,,-99.99,,2013-05-25 22:22:00,
2013-05-25 18:32:00,46.0,41.0,29.75,North,-999,-999.0,-999.0,81,-99.99,,,-99.99,,2013-05-25 22:32:00,
2013-05-25 18:42:00,47.0,40.0,29.75,North,-999,-999.0,-999.0,78,-99.99,,,-99.99,,2013-05-25 22:42:00,
2013-05-25 18:52:00,47.0,40.0,29.75,North,-999,-999.0,-999.0,77,-99.99,,,-99.99,,2013-05-25 22:52:00,
2013-05-25 19:02:00,47.0,40.0,29.75,North,-999,-999.0,-999.0,77,-99.99,,,-99.99,,2013-05-25 23:02:00,
2013-05-25 19:11:00,47.0,40.0,29.75,North,-999,-999.0,-999.0,75,-99.99,,,-99.99,,2013-05-25 23:11:00,
2013-05-25 19:21:00,47.0,38.0,29.75,North,-999,-999.0,-999.0,73,-99.99,,,-99.99,,2013-05-25 23:21:00,
2013-05-25 19:31:00,47.0,38.0,29.76,North,-999,-999.0,-999.0,72,-99.99,,,-99.99,,2013-05-25 23:31:00,
2013-05-25 19:42:00,47.0,38.0,29.76,North,-999,-999.0,-999.0,72,-99.99,,,-99.99,,2013-05-25 23:42:00,
2013-05-25 19:52:00,47.0,39.0,29.77,North,-999,-999.0,-999.0,73,-99.99,,,-99.99,,2013-05-25 23:52:00,
2013-05-25 20:01:00,47.0,39.0,29.77,North,-999,-999.0,-999.0,73,-99.99,,,-99.99,,2013-05-26 00:01:00,
2013-05-25 20:11:00,47.0,39.0,29.77,North,-999,-999.0,-999.0,74,-99.99,,,-99.99,,2013-05-26 00:11:00,
2013-05-25 20:21:00,47.0,39.0,29.77,North,-999,-999.0,-999.0,74,-99.99,,,-99.99,,2013-05-26 00:21:00,
2013-05-25 20:31:00,47.0,39.0,29.77,North,-999,-999.0,-999.0,74,-99.99,,,-99.99,,2013-05-26 00:31:00,
2013-05-25 20:42:00,47.0,39.0,29.77,North,-999,-999.0,-999.0,74,-99.99,,,-99.99,,2013-05-26 00:42:00,